| time (UTC) | temp C | wind direction | speed KPH | gust KPH | rain 1hr cm | rain 24hr cm | rain mn cm | humidity % | barometer mb |
| 20260903034520 | 22 | 288 | 0.0 | 0.0 | 0.00 | 0.00 | 1.75 | 96 | 1003.0 |
| 20260903031526 | 22 | 288 | 0.0 | 0.0 | 0.00 | 0.00 | 1.73 | 96 | 1003.6 |
| 20260903030021 | 21 | 288 | 0.0 | 0.0 | 0.00 | 0.00 | 1.73 | 96 | 1003.5 |
| 20260903024524 | 22 | 283 | 0.0 | 0.0 | 0.00 | 0.00 | 1.73 | 96 | 1003.6 |
| 20260903023024 | 21 | 300 | 0.0 | 0.0 | 0.00 | 0.00 | 1.73 | 96 | 1003.3 |
| 20260903021515 | 21 | 97 | 0.0 | 0.0 | 0.00 | 0.00 | 1.73 | 95 | 1002.6 |
| 20260903013007 | 21 | 96 | 0.0 | 0.0 | 0.00 | 0.00 | 1.60 | 94 | 1004.1 |
| 20260903010041 | 22 | 139 | 0.0 | 0.0 | 0.00 | 0.00 | 1.42 | 93 | 1004.1 |
| 20260903004516 | 22 | 139 | 0.0 | 0.0 | 0.00 | 0.00 | 1.32 | 93 | 1004.1 |
| 20260903003024 | 23 | 139 | 3.2 | 0.0 | 0.00 | 0.00 | 0.86 | 93 | 1004.9 |
| 20260903000109 | 23 | 110 | 0.0 | 0.0 | 0.00 | 0.00 | 0.20 | 94 | 1002.5 |
| 20260902234501 | 23 | 110 | 0.0 | 0.0 | 0.00 | 0.00 | 0.13 | 94 | 1002.7 |
| 20260902233024 | 23 | 110 | 0.0 | 0.0 | 0.00 | 0.00 | 0.10 | 94 | 1002.6 |
| 20260902231506 | 23 | 110 | 0.0 | 0.0 | 0.00 | 0.00 | 0.05 | 94 | 1002.6 |
| 20260902230003 | 23 | 110 | 0.0 | 0.0 | 0.00 | 0.00 | 0.05 | 94 | 1002.5 |
| 20260902224524 | 23 | 282 | 0.0 | 0.0 | 0.00 | 0.00 | 0.03 | 94 | 1002.4 |
| 20260902221524 | 23 | 292 | 0.0 | 0.0 | 0.00 | 0.00 | 0.03 | 94 | 1002.1 |
| 20260902220020 | 22 | 292 | 0.0 | 0.0 | 0.00 | 0.00 | 0.03 | 94 | 1002.5 |
| 20260902213054 | 22 | 292 | 0.0 | 0.0 | 0.00 | 0.00 | 0.03 | 94 | 1002.7 |
| 20260902211534 | 22 | 292 | 0.0 | 0.0 | 0.00 | 0.00 | 0.03 | 94 | 1002.8 |
| 20260902210057 | 22 | 292 | 0.0 | 0.0 | 0.00 | 0.00 | 0.03 | 93 | 1003.0 |
| 20260902204513 | 22 | 303 | 0.0 | 0.0 | 0.00 | 0.00 | 0.03 | 93 | 1003.0 |
| 20260902203015 | 22 | 281 | 0.0 | 0.0 | 0.00 | 0.00 | 0.03 | 93 | 1003.0 |
| 20260902201512 | 22 | 281 | 0.0 | 0.0 | 0.00 | 0.00 | 0.03 | 93 | 1003.0 |
| 20260902200034 | 22 | 281 | 0.0 | 0.0 | 0.00 | 0.00 | 0.03 | 93 | 1003.0 |
| 20260902194521 | 22 | 281 | 0.0 | 0.0 | 0.00 | 0.00 | 0.03 | 92 | 1003.1 |
| 20260902193016 | 22 | 281 | 0.0 | 0.0 | 0.00 | 0.00 | 0.03 | 92 | 1003.0 |
| 20260902191602 | 22 | 281 | 0.0 | 0.0 | 0.00 | 0.00 | 0.03 | 92 | 1003.0 |
| 20260902190002 | 22 | 281 | 0.0 | 0.0 | 0.00 | 0.00 | 0.03 | 92 | 1003.2 |
| 20260902184523 | 22 | 281 | 0.0 | 0.0 | 0.00 | 0.00 | 0.03 | 92 | 1003.0 |
| 20260902183015 | 23 | 281 | 0.0 | 0.0 | 0.00 | 0.00 | 0.03 | 92 | 1003.5 |
| 20260902181510 | 23 | 274 | 0.0 | 0.0 | 0.00 | 0.00 | 0.03 | 92 | 1003.5 |
| 20260902180009 | 23 | 143 | 0.0 | 0.0 | 0.00 | 0.00 | 0.03 | 92 | 1003.4 |
| 20260902174529 | 23 | 143 | 0.0 | 0.0 | 0.00 | 0.00 | 0.00 | 91 | 1003.6 |
| 20260902173106 | 23 | 219 | 0.0 | 0.0 | 0.00 | 0.00 | 0.00 | 91 | 1003.8 |
| 20260902171501 | 23 | 219 | 0.0 | 0.0 | 0.00 | 0.00 | 0.00 | 91 | 1003.8 |
| 20260902170029 | 23 | 219 | 0.0 | 0.0 | 0.00 | 0.00 | 0.00 | 90 | 1003.8 |
| 20260902163004 | 23 | 219 | 0.0 | 0.0 | 0.00 | 0.00 | 0.00 | 90 | 1004.0 |
| 20260902161538 | 23 | 203 | 0.0 | 0.0 | 0.00 | 0.00 | 0.00 | 90 | 1004.0 |
| 20260902160009 | 23 | 288 | 0.0 | 0.0 | 0.00 | 0.00 | 0.00 | 90 | 1003.9 |
| 20260902154509 | 23 | 288 | 0.0 | 0.0 | 0.00 | 0.00 | 0.00 | 89 | 1003.8 |
| 20260902153057 | 23 | 288 | 0.0 | 0.0 | 0.00 | 0.00 | 0.00 | 89 | 1004.1 |
| 20260902151603 | 23 | 288 | 0.0 | 0.0 | 0.00 | 0.00 | 0.00 | 89 | 1004.4 |
| 20260902144622 | 23 | 117 | 0.0 | 0.0 | 0.00 | 0.00 | 1.02 | 89 | 1004.5 |
| 20260902141526 | 23 | 117 | 0.0 | 0.0 | 0.00 | 0.00 | 1.02 | 89 | 1004.5 |
| 20260902140007 | 23 | 117 | 0.0 | 0.0 | 0.00 | 0.00 | 1.02 | 89 | 1004.5 |
| 20260902133023 | 23 | 274 | 0.0 | 0.0 | 0.00 | 0.00 | 1.02 | 88 | 1004.5 |
| 20260902130029 | 23 | 274 | 0.0 | 0.0 | 0.00 | 0.00 | 1.02 | 86 | 1004.6 |
| 20260902124610 | 24 | 274 | 0.0 | 0.0 | 0.00 | 0.00 | 1.02 | 86 | 1004.6 |
| 20260902123104 | 24 | 274 | 0.0 | 0.0 | 0.00 | 0.00 | 1.02 | 85 | 1004.7 |
| 20260902121526 | 24 | 274 | 0.0 | 0.0 | 0.00 | 0.00 | 1.02 | 85 | 1004.9 |
| 20260902120022 | 24 | 274 | 0.0 | 0.0 | 0.00 | 0.00 | 1.02 | 84 | 1005.1 |
| 20260902114618 | 25 | 274 | 0.0 | 0.0 | 0.00 | 0.00 | 1.02 | 84 | 1005.1 |
| 20260902113010 | 25 | 274 | 0.0 | 0.0 | 0.00 | 0.00 | 1.02 | 83 | 1005.1 |
| 20260902111601 | 25 | 274 | 0.0 | 0.0 | 0.00 | 0.00 | 1.02 | 83 | 1005.1 |
| 20260902110107 | 25 | 274 | 0.0 | 0.0 | 0.00 | 0.00 | 1.02 | 82 | 1005.1 |
| 20260902104506 | 25 | 274 | 0.0 | 0.0 | 0.00 | 0.00 | 1.02 | 82 | 1005.0 |
| 20260902103025 | 25 | 274 | 0.0 | 0.0 | 0.00 | 0.00 | 1.02 | 81 | 1004.9 |
| 20260902101504 | 26 | 274 | 0.0 | 0.0 | 0.00 | 0.00 | 1.02 | 80 | 1004.6 |
| 20260902100031 | 26 | 274 | 0.0 | 0.0 | 0.00 | 0.00 | 1.02 | 79 | 1004.5 |
| 20260902094515 | 26 | 274 | 0.0 | 0.0 | 0.00 | 0.00 | 1.02 | 78 | 1004.2 |
| 20260902093001 | 26 | 274 | 0.0 | 0.0 | 0.00 | 0.00 | 1.02 | 76 | 1004.1 |
| 20260902091507 | 27 | 274 | 0.0 | 0.0 | 0.00 | 0.00 | 1.02 | 74 | 1004.1 |
| 20260902090012 | 27 | 274 | 0.0 | 0.0 | 0.00 | 0.00 | 1.02 | 73 | 1004.1 |
| 20260902084523 | 28 | 274 | 0.0 | 0.0 | 0.00 | 0.00 | 1.02 | 71 | 1004.1 |
| 20260902083008 | 28 | 274 | 0.0 | 0.0 | 0.00 | 0.00 | 1.02 | 68 | 1004.4 |
| 20260902081537 | 28 | 266 | 0.0 | 0.0 | 0.00 | 0.00 | 1.02 | 65 | 1004.5 |
| 20260902080056 | 29 | 303 | 0.0 | 0.0 | 0.00 | 0.00 | 1.02 | 63 | 1004.3 |
| 20260902074506 | 29 | 314 | 0.0 | 0.0 | 0.00 | 0.00 | 1.02 | 63 | 1004.4 |
| 20260902073008 | 29 | 266 | 0.0 | 0.0 | 0.00 | 0.00 | 1.02 | 62 | 1004.4 |
| 20260902071511 | 28 | 281 | 0.0 | 0.0 | 0.00 | 0.00 | 1.02 | 65 | 1004.5 |
| 20260902064603 | 28 | 103 | 1.6 | 0.0 | 0.00 | 0.00 | 1.02 | 69 | 1004.6 |
| 20260902063058 | 27 | 239 | 0.0 | 0.0 | 0.00 | 0.00 | 1.02 | 74 | 1004.6 |
| 20260902061510 | 26 | 293 | 1.6 | 0.0 | 0.00 | 0.00 | 1.02 | 79 | 1004.4 |
| 20260902060045 | 25 | 274 | 1.6 | 0.0 | 0.00 | 0.00 | 1.02 | 81 | 1004.5 |
| 20260902054510 | 25 | 333 | 1.6 | 0.0 | 0.00 | 0.00 | 1.02 | 85 | 1004.6 |
| 20260902053022 | 25 | 264 | 1.6 | 0.0 | 0.00 | 0.00 | 1.02 | 88 | 1004.6 |
| 20260902051600 | 25 | 98 | 1.6 | 0.0 | 0.00 | 0.00 | 1.02 | 89 | 1004.6 |
| 20260902050009 | 24 | 112 | 0.0 | 0.0 | 0.00 | 0.00 | 1.02 | 89 | 1004.6 |
| 20260902044523 | 24 | 96 | 1.6 | 0.0 | 0.00 | 0.00 | 1.02 | 86 | 1004.7 |
| 20260902043017 | 24 | 115 | 1.6 | 0.0 | 0.00 | 0.00 | 1.02 | 81 | 1005.1 |
| 20260902041600 | 26 | 279 | 1.6 | 0.0 | 0.00 | 0.00 | 0.99 | 75 | 1005.1 |